Location: Eschertshofen
(49.3064°N, 11.5756°E)
Time: 12:56:12
(UTC+00:00)

Lacrosse 4 Rocket - Pass Details

Date: 18 September 2020
Orbit: 543 x 615 km, 68.0° (Epoch: 25 October)

Event Time Altitude Azimuth Distance (km) Brightness Sun altitude
Rises 19:20:01 0° 334° (NNW) 2,717 5.7 -19.7°
Reaches altitude 10° 19:23:18 10° 3° (N) 1,822 4.3 -20.2°
Maximum altitude 19:25:17 13° 32° (NNE) 1,625 3.7 -20.4°
Enters shadow 19:25:48 13° 40° (NE) 1,640 3.6 -20.5°
